Muskegon, MI

10:19 PM EST on February 27, 2017 (GMT -0500)
Muskegon County

Weather History for KMKG - December, 2012

Change the Weather History Date:

Wednesday, December 26, 2012

  Actual Average Record
Temperature  
Mean Temperature 27 °F 28 °F  
Max Temperature 30 °F 33 °F 58 °F (1936)
Min Temperature 23 °F 23 °F -4 °F (1951)
Degree Days  
Heating Degree Days 38 37  
Month to date heating degree days 722 891  
Since 1 July heating degree days 2022 2258  
Cooling Degree Days 0 0  
Month to date cooling degree days 0 0  
Year to date cooling degree days 925 566  
Moisture  
Dew Point 16 °F    
Average Humidity 66    
Maximum Humidity 74    
Minimum Humidity 58    
Precipitation  
Precipitation 0.00 in 0.07 in 0.62 in (1985)
Month to date precipitation 2.83 2.20  
Year to date precipitation 31.38 33.14  
Snow  
Snow 0.00 in 1.00 in 14.40 in (1985)
Month to date snowfall 4.5 23.9  
Since 1 July snowfall 5.3 30.1  
Snow Depth 0.00 in    
Sea Level Pressure  
Sea Level Pressure 30.14 in    
Wind  
Wind Speed 12 mph (NNE)    
Max Wind Speed 22 mph    
Max Gust Speed 30 mph    
Visibility 10 miles    
Events      
T = Trace of Precipitation, MM = Missing Value Source: NWS Daily Summary

Daily Weather History Graph

Daily Weather History Graph

Search for Another Location

Airport or City:

Trip Planner

Search our weather history database for the weather conditions in past years. The results will help you decide how hot, cold, wet, or windy it might be!

Date:

Astronomy

Dec. 26, 2012 Rise Set
Actual Time 8:15 AM EST 5:15 PM EST
Civil Twilight 7:43 AM EST 5:48 PM EST
Nautical Twilight 7:07 AM EST 6:24 PM EST
Astronomical Twilight 6:32 AM EST 6:59 PM EST
Moon 4:09 PM EST (12/26) 6:38 AM EST (12/26)
Length of Visible Light 10h 05m
Length of Day
9h 00m
Waxing Gibbous, 97% of the Moon is Illuminated
Dec 26
Waxing Gibbous
Dec 28
Full
Jan 4
Last Quarter
Jan 11
New
Jan 18
First Quarter

Hourly Weather History & Observations

Time (EST) Temp. Windchill Dew Point Humidity Pressure Visibility Wind Dir Wind Speed Gust Speed Precip Events Conditions
12:55 AM 24.1 °F 15.2 °F 15.1 °F 69% 30.32 in 10.0 mi NE 8.1 mph - N/A   Clear
1:55 AM 23.0 °F 14.7 °F 15.8 °F 74% 30.28 in 10.0 mi NE 6.9 mph - N/A   Clear
2:55 AM 24.1 °F 13.7 °F 15.1 °F 69% 30.30 in 10.0 mi NE 10.4 mph - N/A   Mostly Cloudy
3:55 AM 25.0 °F 15.5 °F 15.1 °F 66% 30.26 in 10.0 mi NE 9.2 mph - N/A   Overcast
4:55 AM 25.0 °F 13.6 °F 15.1 °F 66% 30.22 in 10.0 mi NE 12.7 mph - N/A   Scattered Clouds
5:55 AM 26.1 °F 15.6 °F 15.1 °F 63% 30.22 in 10.0 mi NNE 11.5 mph - N/A   Overcast
6:55 AM 26.6 °F 18.2 °F 15.8 °F 64% 30.18 in 10.0 mi NE 8.1 mph - N/A   Overcast
7:06 AM 26.6 °F 17.5 °F 15.8 °F 64% 30.18 in 10.0 mi NE 9.2 mph - N/A   Overcast
7:38 AM 26.6 °F 15.7 °F 15.8 °F 64% 30.16 in 10.0 mi NNE 12.7 mph 20.7 mph N/A   Mostly Cloudy
7:55 AM 27.0 °F 15.6 °F 17.1 °F 66% 30.17 in 10.0 mi NNE 13.8 mph - N/A   Mostly Cloudy
8:55 AM 27.0 °F 17.3 °F 18.0 °F 69% 30.16 in 10.0 mi NNE 10.4 mph 19.6 mph N/A   Overcast
9:55 AM 28.0 °F 17.5 °F 18.0 °F 66% 30.16 in 10.0 mi NNE 12.7 mph - N/A   Overcast
10:55 AM 28.0 °F 16.1 °F 19.0 °F 69% 30.14 in 10.0 mi NNE 16.1 mph 24.2 mph N/A   Overcast
11:52 AM 28.4 °F 17.5 °F 19.4 °F 69% 30.08 in 10.0 mi NNE 13.8 mph 23.0 mph N/A   Overcast
11:55 AM 28.9 °F 19.8 °F 19.0 °F 67% 30.10 in 10.0 mi NNE 10.4 mph 23.0 mph N/A   Overcast
12:55 PM 28.9 °F 16.5 °F 19.0 °F 67% 30.08 in 10.0 mi NNE 18.4 mph 26.5 mph N/A   Overcast
1:55 PM 30.0 °F 17.9 °F 18.0 °F 61% 30.06 in 10.0 mi NNE 18.4 mph 24.2 mph N/A   Overcast
2:55 PM 30.0 °F 16.9 °F 18.0 °F 61% 30.05 in 10.0 mi NNE 21.9 mph 29.9 mph N/A   Overcast
3:55 PM 28.9 °F 17.7 °F 18.0 °F 64% 30.06 in 10.0 mi NNE 15.0 mph 23.0 mph N/A   Overcast
4:55 PM 28.9 °F 17.3 °F 17.1 °F 61% 30.06 in 10.0 mi NNE 16.1 mph 25.3 mph N/A   Overcast
5:55 PM 27.0 °F 14.7 °F 16.0 °F 63% 30.05 in 10.0 mi NE 16.1 mph 24.2 mph N/A   Overcast
6:55 PM 27.0 °F 16.1 °F 16.0 °F 63% 30.06 in 10.0 mi NNE 12.7 mph 20.7 mph N/A   Overcast
7:55 PM 26.1 °F 16.2 °F 15.1 °F 63% 30.08 in 10.0 mi North 10.4 mph - N/A   Overcast
8:55 PM 25.0 °F 16.3 °F 14.0 °F 63% 30.08 in 10.0 mi NNE 8.1 mph - N/A   Overcast
9:55 PM 25.0 °F 17.1 °F 14.0 °F 63% 30.09 in 10.0 mi North 6.9 mph - N/A   Overcast
10:55 PM 24.1 °F 13.1 °F 14.0 °F 65% 30.09 in 10.0 mi North 11.5 mph - N/A   Overcast
11:51 PM 24.8 °F 13.4 °F 15.8 °F 69% 30.07 in 10.0 mi NNW 12.7 mph - N/A   Overcast
11:55 PM 23.0 °F 11.7 °F 14.0 °F 68% 30.10 in 10.0 mi NNW 11.5 mph - N/A   Overcast